KJ6HT Weather Reports


Display with metric or nautical units.
time (UTC)temp
F
wind
direction
speed
MPH
gust
MPH
rain 1hr
in
rain 24hr
in
rain mn
in
humidity
%
barometer
mb
20260505034501 59 311 6.0 10.0 0.00 0.00 0.00 74 1013.6
20260505033001 59 236 3.0 9.0 0.00 0.00 0.00 71 1013.6
20260505031600 60 249 5.0 12.0 0.00 0.00 0.00 70 1013.4
20260505030059 60 221 4.0 13.0 0.00 0.00 0.00 69 1013.3
20260505024558 60 243 5.0 13.0 0.00 0.00 0.00 69 1013.2
20260505023058 61 224 6.0 13.0 0.00 0.00 0.00 68 1013.3
20260505021601 61 233 4.0 14.0 0.00 0.00 0.00 67 1013.1
20260505020056 62 233 5.0 17.0 0.00 0.00 0.00 63 1013.1
20260505014556 62 233 3.0 12.0 0.00 0.00 0.00 61 1013.1
20260505013055 63 222 4.0 14.0 0.00 0.00 0.00 61 1013.2
20260505011557 63 193 3.0 11.0 0.00 0.00 0.00 59 1013.2
20260505010100 63 276 6.0 15.0 0.00 0.00 0.00 56 1013.3
20260505004551 64 256 4.0 12.0 0.00 0.00 0.00 56 1013.3
20260505003051 64 250 7.0 12.0 0.00 0.00 0.00 57 1013.4
20260505001552 64 222 6.0 16.0 0.00 0.00 0.00 56 1013.4
20260505000057 65 266 5.0 16.0 0.00 0.00 0.00 56 1013.3
20260504234555 66 217 9.0 14.0 0.00 0.00 0.00 55 1013.1
20260504233048 66 212 8.0 12.0 0.00 0.00 0.00 53 1013.0
20260504231546 68 287 7.0 13.0 0.00 0.00 0.00 51 1012.9
20260504230046 68 212 6.0 14.0 0.00 0.00 0.00 52 1012.7
20260504224543 68 291 7.0 17.0 0.00 0.00 0.00 51 1013.1
20260504223042 69 140 7.0 12.0 0.00 0.00 0.00 49 1013.1
20260504221542 68 255 4.0 12.0 0.00 0.00 0.00 49 1013.3
20260504220047 69 206 4.0 11.0 0.00 0.00 0.00 48 1013.5
20260504214539 69 250 4.0 14.0 0.00 0.00 0.00 49 1013.5
20260504213052 68 232 4.0 8.0 0.00 0.00 0.00 49 1014.0
20260504211542 69 207 6.0 14.0 0.00 0.00 0.00 49 1014.1
20260504210034 68 208 3.0 10.0 0.00 0.00 0.00 47 1014.2
20260504204540 67 165 3.0 10.0 0.00 0.00 0.00 51 1014.3
20260504203034 66 218 6.0 14.0 0.00 0.00 0.00 51 1014.4
20260504201532 67 259 5.0 11.0 0.00 0.00 0.00 49 1014.5
20260504200033 67 256 3.0 10.0 0.00 0.00 0.00 49 1014.5
20260504194531 66 111 4.0 12.0 0.00 0.00 0.00 49 1014.6
20260504193031 67 200 6.0 11.0 0.00 0.00 0.00 48 1014.6
20260504191533 67 329 6.0 11.0 0.00 0.00 0.00 46 1014.5
20260504190032 66 287 5.0 12.0 0.00 0.00 0.00 49 1014.5
20260504184527 67 277 2.0 10.0 0.00 0.00 0.00 51 1014.6
20260504183027 67 301 6.0 10.0 0.00 0.00 0.00 48 1014.7
20260504181524 67 190 4.0 8.0 0.00 0.00 0.00 52 1014.8
20260504180020 65 233 2.0 10.0 0.00 0.00 0.00 58 1014.9
20260504174522 65 264 3.0 9.0 0.00 0.00 0.00 58 1014.8
20260504173019 64 304 4.0 10.0 0.00 0.00 0.00 56 1014.8
20260504171516 64 250 3.0 8.0 0.00 0.00 0.00 54 1014.7
20260504120111 55 267 0.0 2.0 0.00 0.00 0.00 80 1013.6
20260504100111 57 242 1.0 2.0 0.00 0.00 0.00 76 1013.3
20260504081546 58 291 1.0 7.0 0.00 0.00 0.00 78 1014.7
20260504080130 58 317 2.0 6.0 0.00 0.00 0.00 78 1014.6
20260504070140 58 229 1.0 7.0 0.00 0.00 0.00 78 1014.6
20260504044511 59 253 2.0 10.0 0.00 0.00 0.00 73 1013.8
20260504043100 59 225 2.0 8.0 0.00 0.00 0.00 71 1013.6
20260504041510 59 295 1.0 5.0 0.00 0.00 0.00 70 1013.3
20260504040125 60 335 2.0 8.0 0.00 0.00 0.00 70 1013.4